Weather History for PADU - October, 2011

Change the Weather History Date:

Tuesday, October 25, 2011

  Actual Average Record
Temperature  
Mean Temperature 42 °F -  
Max Temperature 45 °F 45 °F 58 °F (1991)
Min Temperature 39 °F 31 °F 15 °F (1991)
Degree Days  
Heating Degree Days 24    
Moisture  
Dew Point 31 °F    
Average Humidity 64    
Maximum Humidity 79    
Minimum Humidity 45    
Precipitation  
Precipitation 0.10 in - - ()
Sea Level Pressure  
Sea Level Pressure 29.76 in    
Wind  
Wind Speed 27 mph (WSW)    
Max Wind Speed 37 mph    
Max Gust Speed 55 mph    
Visibility 9 miles    
Events Rain    
Averages and records for this station are not official NWS values.
T = Trace of Precipitation, MM = Missing Value Source: NWS Daily Summary

Daily Weather History Graph

Daily Weather History Graph

Search for Another Location

Airport or City:

Trip Planner

Search our weather history database for the weather conditions in past years. The results will help you decide how hot, cold, wet, or windy it might be!

Date:

Astronomy

Oct. 25, 2011 Rise Set
Actual Time 9:52 AM AKDT 7:46 PM AKDT
Civil Twilight 9:16 AM AKDT 8:23 PM AKDT
Nautical Twilight 8:35 AM AKDT 9:04 PM AKDT
Astronomical Twilight 7:54 AM AKDT 9:45 PM AKDT
Moon 8:39 AM AKDT (10/25) 6:53 PM AKDT (10/25)
Length of Visible Light 11h 06m
Length of Day
9h 53m
Waning Crescent, 2% of the Moon is Illuminated
Oct 25
Waning Crescent
Oct 26
New
Nov 2
First Quarter
Nov 10
Full
Nov 18
Last Quarter

Hourly Weather History & Observations

Time (AKDT) Temp. Windchill Dew Point Humidity Pressure Visibility Wind Dir Wind Speed Gust Speed Precip Events Conditions
12:45 AM 42.8 °F 31.3 °F 30.2 °F 61% 29.52 in 10.0 mi NW 36.8 mph 46.0 mph 0.01 in   Overcast
12:58 AM 42.1 °F 31.1 °F 28.9 °F 60% 29.54 in 10.0 mi WNW 31.1 mph 47.2 mph 0.01 in   Overcast
1:58 AM 41.0 °F 29.5 °F 28.9 °F 62% 29.60 in 10.0 mi NW 32.2 mph 49.5 mph 0.01 in   Mostly Cloudy
2:58 AM 41.0 °F 29.8 °F 28.0 °F 60% 29.63 in 10.0 mi WNW 29.9 mph 55.2 mph 0.00 in   Mostly Cloudy
3:58 AM 42.1 °F 31.9 °F 27.0 °F 55% 29.67 in 10.0 mi WNW 26.5 mph 44.9 mph 0.00 in   Overcast
4:58 AM 41.0 °F 29.1 °F 28.9 °F 62% 29.71 in 10.0 mi WNW 34.5 mph 46.0 mph 0.01 in Rain Light Rain
5:47 AM 39.2 °F 27.4 °F 28.4 °F 65% 29.72 in 10.0 mi WNW 29.9 mph 39.1 mph 0.01 in Rain Light Rain
5:52 AM 39.2 °F 27.0 °F 28.4 °F 65% 29.72 in 10.0 mi WNW 32.2 mph 39.1 mph 0.01 in Rain Light Rain
5:58 AM 39.9 °F 28.4 °F 28.0 °F 63% 29.74 in 10.0 mi WNW 29.9 mph 48.3 mph 0.01 in Rain Light Rain
6:58 AM 41.0 °F 29.1 °F 27.0 °F 57% 29.77 in 6.0 mi WNW 34.5 mph 46.0 mph 0.00 in   Overcast
6:59 AM 41.0 °F 29.1 °F 26.6 °F 57% 29.75 in 10.0 mi NW 34.5 mph 43.7 mph N/A   Mostly Cloudy
7:58 AM 39.9 °F 27.8 °F 28.0 °F 63% 29.80 in 6.0 mi WNW 33.4 mph 42.6 mph 0.01 in Rain Light Rain
7:59 AM 39.2 °F 27.2 °F 28.4 °F 65% 29.78 in 9.0 mi WNW 31.1 mph 42.6 mph 0.00 in Rain Light Rain
8:03 AM 41.0 °F 30.5 °F 28.4 °F 61% 29.79 in 6.0 mi WNW 26.5 mph 42.6 mph 0.00 in Rain Light Rain
8:58 AM 42.1 °F 32.1 °F 21.9 °F 45% 29.82 in 10.0 mi WNW 25.3 mph 48.3 mph 0.00 in   Overcast
9:58 AM 39.0 °F 28.8 °F 30.0 °F 70% 29.86 in 10.0 mi West 21.9 mph 31.1 mph 0.00 in   Mostly Cloudy
10:58 AM 42.1 °F 32.1 °F 27.0 °F 55% 29.88 in 10.0 mi WNW 25.3 mph 34.5 mph N/A   Mostly Cloudy
11:58 AM 42.1 °F 33.1 °F 28.9 °F 60% 29.89 in 10.0 mi West 20.7 mph - N/A   Mostly Cloudy
12:58 PM 43.0 °F 34.5 °F 27.0 °F 53% 29.89 in 10.0 mi West 19.6 mph 31.1 mph N/A   Mostly Cloudy
1:58 PM 43.0 °F 35.7 °F 30.0 °F 60% 29.89 in 10.0 mi SSW 15.0 mph 21.9 mph N/A   Mostly Cloudy
2:58 PM 43.0 °F 41.3 °F 28.9 °F 58% 29.88 in 10.0 mi Variable 3.5 mph 21.9 mph N/A   Mostly Cloudy
3:58 PM 43.0 °F 34.2 °F 30.9 °F 62% 29.86 in 10.0 mi SSW 20.7 mph 36.8 mph 0.00 in Rain Light Rain
4:58 PM 44.1 °F 35.0 °F 30.9 °F 60% 29.84 in 10.0 mi SW 24.2 mph 39.1 mph 0.00 in   Overcast
5:58 PM 44.1 °F 35.2 °F 32.0 °F 63% 29.81 in 10.0 mi SW 23.0 mph 33.4 mph N/A   Overcast
6:58 PM 44.1 °F 33.8 °F 33.1 °F 65% 29.80 in 10.0 mi SSW 31.1 mph 38.0 mph 0.00 in Rain Light Rain
7:39 PM 42.8 °F 34.0 °F 33.8 °F 70% 29.78 in 4.0 mi SW 20.7 mph 29.9 mph 0.00 in Rain Light Rain
7:44 PM 42.8 °F 34.0 °F 33.8 °F 70% 29.78 in 5.0 mi SW 20.7 mph 33.4 mph 0.01 in Rain Light Rain
7:50 PM 42.8 °F 34.8 °F 33.8 °F 70% 29.78 in 4.0 mi SSW 17.3 mph 33.4 mph 0.02 in Rain Light Rain
7:58 PM 42.1 °F 34.2 °F 34.0 °F 73% 29.79 in 6.0 mi SW 16.1 mph 26.5 mph 0.02 in Rain Light Rain
8:28 PM 44.6 °F 37.2 °F 33.8 °F 66% 29.76 in 10.0 mi SSW 17.3 mph 24.2 mph 0.01 in Rain Light Rain
8:58 PM 44.1 °F 35.7 °F 34.0 °F 68% 29.77 in 10.0 mi SW 20.7 mph 31.1 mph 0.01 in Rain Light Rain
9:22 PM 42.8 °F 33.5 °F 35.6 °F 76% 29.74 in 10.0 mi SW 23.0 mph - 0.00 in Rain Light Rain
9:58 PM 42.1 °F 35.7 °F 36.0 °F 79% 29.74 in 9.0 mi SSW 11.5 mph - 0.01 in Rain Light Rain
10:08 PM 42.8 °F 36.2 °F 35.6 °F 76% 29.71 in 9.0 mi SSW 12.7 mph - 0.01 in Rain Light Rain
10:16 PM 42.8 °F 35.8 °F 35.6 °F 76% 29.71 in 10.0 mi SSW 13.8 mph - 0.01 in Rain Light Rain
10:58 PM 44.1 °F 38.6 °F 36.0 °F 73% 29.70 in 10.0 mi South 10.4 mph - 0.01 in Rain Light Rain
11:58 PM 45.0 °F 38.9 °F 34.0 °F 65% 29.67 in 10.0 mi South 12.7 mph 16.1 mph 0.00 in Rain Light Rain